Location: Newark
(48.5667°N, 7.8167°E)
Time: 13:48:33
(UTC+00:00)

ISS - Pass Details

Date: 20 September 2021
Orbit: 417 x 423 km, 51.6° (Epoch: 21 October)

Event Time Altitude Azimuth Distance (km) Brightness Sun altitude
Rises 20:25:10 0° 274° (W) 2,365 0.9 -27.7°
Reaches altitude 10° 20:27:19 10° 280° (W) 1,502 -0.2 -28.0°
Enters shadow 20:28:25 19° 287° (WNW) 1,086 -1.0 -28.1°
